SL-16 DEB, 23707

Orbit data source: Space-Track

SL-16 DEB, 23707 is space debris in LEO originally from a launch on Tue, 31 Oct 1995 UTC launched from the Tyuratam Missile And Space Complex (TTMTR). Debris objects in space refer to the collection of defunct objects orbiting the Earth. Examples of debris include non-operational satellites, rocket bodies, and fragments generated from explosions, collisions, or faulty payload assembly.

Loading next visibility...
SL-16 DEB details
Identifier
23707, 1995-058D
Orbit
LEO
Last TLE update9 hours ago
Origin
Flag of CISVKS (CIS)
ManufacturerYuzhnoe
MissionSpacecraft
Bus & MotorSEP MOTOR COVER, Unknown motor
Mass~0 kg wet, ~1 kg dry
Launch date (UTC)
1995-10-31 (29 years ago)
Launch vehicleUnknown
Launch site
Tyuratam Missile And Space Complex (TTMTR)
Object type
Payload
Rocket body
Debris
Shape & HBRUnknown
Radar Cross SectionSmall (<0.1 m²)

Expand to show TLE details & history

TLE from 9 hours ago
0 SL-16 DEB
1 23707U 95058D   24361.51009848  .00000569  00000-0  57646-3 0  9998
2 23707  70.9951 106.1029 0204594 161.1763 326.5981 13.72349739459594
Epoch: 2024-12-26T12:14Z
Definitive object data (Epoch: 2024-12-26T12:14:32.508Z)
Latitude49.61621°
Longitude-16.77363°
Altitude873.535 km
Speed7.483 km/s
True Right ascension17h 29m 24s
True Declination49° 26' 57"
Sunlit
Object was in daylight at TLE epoch
Visualization TLE readout
Latitude-69.29341°
Longitude71.23709°
Altitude1,041.661 km
Speed7.318 km/s
Apparent Right ascension07h 05m 08s
Apparent Declination-74° 03' 13"
Sunlit
Object is in daylight
Visualization observer readout
Local Sidereal Time21:00:38
Azimuth167.182° S
Elevation-53.273°
Doppler factor1
Orbital elements
Apogee altitude1,139.843 km
Perigee altitude838.384 km
Semi-major axis7,367.25 km
Eccentricity0.0204594
Inclination70.9951°
RAAN106.1029°
Arg. of periapsis161.1763°
True anomaly325.27943°
Mean anomaly326.5981°
Eccentric anomaly325.9416°
Mean motion3.4323 °/min
BSTAR0.00057646
Orbital period104.89 mins
Loading maneuver chart data...
Loading historical data...
Loading historical data...
Loading historical data...
Loading historical data...
Loading historical data...
Loading historical data...
Loading historical data...

SL-16 DEB Visibility forecast

Observer location: undefined°, undefined

Span
Click to sort rows by Start time (UTC) header in descending order
Start Az.
Max El. time (UTC)
Max El. Az.
Max El.
End time (UTC)
End Az.
7 mins2024-12-27 06:59:36.682Z133.49° SE2024-12-27 07:03:36.682Z96.021° ESE16.755°2024-12-27 07:06:36.682Z66.548° ENE
11 mins2024-12-27 08:44:36.682Z208.505° SW2024-12-27 08:49:36.682Z251.719° W43.776°2024-12-27 08:55:36.682Z19.355° NNE
5 mins2024-12-27 10:36:36.682Z294.377° NW2024-12-27 10:38:36.682Z314.413° NW14.62°2024-12-27 10:41:36.682Z343.428° N
9 mins2024-12-27 17:57:36.682Z348.028° N2024-12-27 18:01:36.682Z74.347° E41.523°2024-12-27 18:06:36.682Z144.75° SSE
4 mins2024-12-27 19:46:36.682Z279.588° WNW2024-12-27 19:47:36.682Z267.444° W15.366°2024-12-27 19:50:36.682Z231.984° WSW
|